Time,TemperatureF,DewpointF,PressureIn,WindDirection,WindDirectionDegrees,WindSpeedMPH,WindSpeedGustMPH,Humidity,HourlyPrecipIn,Conditions,Clouds,dailyrainin,SoftwareType,DateUTC
2013-02-20 00:01:00,39.5,39.0,29.51,ESE,103,0.0,0.0,98,0.00,,,0.45,Wunderground v.1.15,2013-02-20 05:01:00,
2013-02-20 00:06:00,39.4,38.9,29.50,ESE,103,0.0,0.0,98,0.00,,,0.46,Wunderground v.1.15,2013-02-20 05:06:00,
2013-02-20 00:11:00,39.4,38.9,29.50,ESE,103,0.0,0.0,98,0.00,,,0.46,Wunderground v.1.15,2013-02-20 05:11:00,
2013-02-20 00:21:00,39.5,39.0,29.49,ESE,104,0.0,0.0,98,0.00,,,0.46,Wunderground v.1.15,2013-02-20 05:21:00,
2013-02-20 00:31:00,39.7,39.4,29.50,ESE,103,0.0,0.0,99,0.00,,,0.46,Wunderground v.1.15,2013-02-20 05:31:00,
2013-02-20 00:41:00,39.8,39.5,29.49,ESE,103,0.0,0.0,99,0.00,,,0.46,Wunderground v.1.15,2013-02-20 05:41:00,
2013-02-20 00:50:00,39.9,39.6,29.49,ESE,103,0.0,0.0,99,0.00,,,0.46,Wunderground v.1.15,2013-02-20 05:50:00,
2013-02-20 00:56:00,40.1,39.8,29.49,ESE,103,0.0,0.0,99,0.00,,,0.46,Wunderground v.1.15,2013-02-20 05:56:00,
2013-02-20 01:06:00,40.2,39.7,29.48,ESE,103,0.0,0.0,98,0.00,,,0.00,Wunderground v.1.15,2013-02-20 06:06:00,
2013-02-20 01:16:00,40.0,39.5,29.48,ESE,104,0.0,0.0,98,0.00,,,0.00,Wunderground v.1.15,2013-02-20 06:16:00,
2013-02-20 01:21:00,39.9,39.6,29.48,ESE,104,0.0,0.0,99,0.00,,,0.00,Wunderground v.1.15,2013-02-20 06:21:00,
2013-02-20 01:26:00,39.8,39.5,29.48,ESE,104,0.0,0.0,99,0.00,,,0.00,Wunderground v.1.15,2013-02-20 06:26:00,
2013-02-20 01:35:00,39.6,39.1,29.47,ESE,104,0.0,0.0,98,0.00,,,0.00,Wunderground v.1.15,2013-02-20 06:35:00,
2013-02-20 01:46:00,39.2,38.7,29.46,ESE,104,0.0,0.0,98,0.00,,,0.00,Wunderground v.1.15,2013-02-20 06:46:00,
2013-02-20 01:56:00,39.1,38.6,29.46,ESE,103,0.0,0.0,98,0.00,,,0.00,Wunderground v.1.15,2013-02-20 06:56:00,
2013-02-20 02:06:00,38.9,38.4,29.46,ESE,103,0.0,0.0,98,0.00,,,0.00,Wunderground v.1.15,2013-02-20 07:06:00,
2013-02-20 02:16:00,38.6,38.1,29.46,ESE,103,0.0,0.0,98,0.00,,,0.00,Wunderground v.1.15,2013-02-20 07:16:00,
2013-02-20 02:25:00,38.4,37.9,29.45,ESE,103,0.0,0.0,98,0.00,,,0.00,Wunderground v.1.15,2013-02-20 07:25:00,
2013-02-20 02:35:00,38.2,37.7,29.46,ESE,104,0.0,0.0,98,0.00,,,0.00,Wunderground v.1.15,2013-02-20 07:35:00,
2013-02-20 02:46:00,38.0,37.5,29.46,South,185,0.0,0.0,98,0.00,,,0.00,Wunderground v.1.15,2013-02-20 07:46:00,
2013-02-20 02:56:00,37.8,37.3,29.46,South,188,1.0,1.0,98,0.00,,,0.00,Wunderground v.1.15,2013-02-20 07:56:00,
2013-02-20 03:01:00,37.7,37.2,29.46,South,188,1.0,1.0,98,0.00,,,0.00,Wunderground v.1.15,2013-02-20 08:01:00,
2013-02-20 03:11:00,37.4,36.9,29.46,South,190,1.0,1.0,98,0.00,,,0.00,Wunderground v.1.15,2013-02-20 08:11:00,
2013-02-20 03:16:00,37.3,36.8,29.46,South,190,1.0,1.0,98,0.00,,,0.00,Wunderground v.1.15,2013-02-20 08:16:00,
2013-02-20 03:26:00,37.1,36.6,29.46,South,190,1.0,1.0,98,0.00,,,0.00,Wunderground v.1.15,2013-02-20 08:26:00,
2013-02-20 03:31:00,37.0,36.5,29.46,South,190,0.0,0.0,98,0.00,,,0.00,Wunderground v.1.15,2013-02-20 08:31:00,
2013-02-20 03:41:00,36.9,36.4,29.46,South,190,1.0,1.0,98,0.00,,,0.00,Wunderground v.1.15,2013-02-20 08:41:00,
2013-02-20 03:46:00,36.8,36.3,29.46,SSW,192,0.0,1.0,98,0.00,,,0.00,Wunderground v.1.15,2013-02-20 08:46:00,
2013-02-20 03:56:00,36.8,36.3,29.46,SSW,192,1.0,1.0,98,0.00,,,0.00,Wunderground v.1.15,2013-02-20 08:56:00,
2013-02-20 04:06:00,36.6,36.1,29.46,SSW,192,0.0,0.0,98,0.00,,,0.00,Wunderground v.1.15,2013-02-20 09:06:00,
2013-02-20 04:11:00,36.5,36.0,29.46,SSW,192,0.0,0.0,98,0.00,,,0.00,Wunderground v.1.15,2013-02-20 09:11:00,
2013-02-20 04:16:00,36.4,35.9,29.46,SSW,192,0.0,0.0,98,0.00,,,0.00,Wunderground v.1.15,2013-02-20 09:16:00,
2013-02-20 04:26:00,36.4,35.9,29.47,SW,215,0.0,1.0,98,0.00,,,0.00,Wunderground v.1.15,2013-02-20 09:26:00,
2013-02-20 04:36:00,36.4,35.9,29.48,SW,216,1.0,1.0,98,0.00,,,0.00,Wunderground v.1.15,2013-02-20 09:36:00,
2013-02-20 04:41:00,36.4,35.9,29.48,SW,215,1.0,1.0,98,0.00,,,0.00,Wunderground v.1.15,2013-02-20 09:41:00,
2013-02-20 04:51:00,36.3,35.5,29.48,SW,234,1.0,2.0,97,0.00,,,0.00,Wunderground v.1.15,2013-02-20 09:51:00,
2013-02-20 04:56:00,36.2,35.4,29.48,SW,236,1.0,2.0,97,0.00,,,0.00,Wunderground v.1.15,2013-02-20 09:56:00,
2013-02-20 05:06:00,35.9,34.9,29.48,WNW,296,1.0,2.0,96,0.00,,,0.00,Wunderground v.1.15,2013-02-20 10:06:00,
2013-02-20 05:16:00,35.5,34.2,29.49,West,279,1.0,1.0,95,0.00,,,0.00,Wunderground v.1.15,2013-02-20 10:16:00,
2013-02-20 05:26:00,35.1,33.5,29.49,SW,219,1.0,1.0,94,0.00,,,0.00,Wunderground v.1.15,2013-02-20 10:26:00,
2013-02-20 05:36:00,35.0,33.2,29.49,North,355,2.0,2.0,93,0.00,,,0.00,Wunderground v.1.15,2013-02-20 10:36:00,
2013-02-20 05:46:00,34.8,32.7,29.49,West,262,1.0,1.0,92,0.00,,,0.00,Wunderground v.1.15,2013-02-20 10:46:00,
2013-02-20 05:56:00,34.8,32.4,29.49,NNW,341,1.0,1.0,91,0.00,,,0.00,Wunderground v.1.15,2013-02-20 10:56:00,
2013-02-20 06:06:00,34.7,32.3,29.49,NNW,341,0.0,2.0,91,0.00,,,0.00,Wunderground v.1.15,2013-02-20 11:06:00,
2013-02-20 06:16:00,34.6,32.0,29.50,NNW,341,1.0,2.0,90,0.00,,,0.00,Wunderground v.1.15,2013-02-20 11:16:00,
2013-02-20 06:21:00,34.5,31.9,29.50,NNW,341,1.0,1.0,90,0.00,,,0.00,Wunderground v.1.15,2013-02-20 11:21:00,
2013-02-20 06:26:00,34.4,31.5,29.51,SW,230,1.0,5.0,89,0.00,,,0.00,Wunderground v.1.15,2013-02-20 11:26:00,
2013-02-20 06:36:00,34.3,31.1,29.51,WNW,288,1.0,2.0,88,0.00,,,0.00,Wunderground v.1.15,2013-02-20 11:36:00,
2013-02-20 06:46:00,34.0,30.5,29.51,WNW,288,0.0,1.0,87,0.00,,,0.00,Wunderground v.1.15,2013-02-20 11:46:00,
2013-02-20 06:56:00,33.6,29.9,29.52,NNW,331,0.0,0.0,86,0.00,,,0.00,Wunderground v.1.15,2013-02-20 11:56:00,
2013-02-20 07:01:00,33.4,29.4,29.52,NNW,331,1.0,1.0,85,0.00,,,0.00,Wunderground v.1.15,2013-02-20 12:01:00,
2013-02-20 07:06:00,33.4,29.1,29.52,WSW,241,1.0,1.0,84,0.00,,,0.00,Wunderground v.1.15,2013-02-20 12:06:00,
2013-02-20 07:16:00,33.4,28.5,29.53,WSW,246,1.0,1.0,82,0.00,,,0.00,Wunderground v.1.15,2013-02-20 12:16:00,
2013-02-20 07:26:00,33.6,28.4,29.54,West,275,1.0,1.0,81,0.00,,,0.00,Wunderground v.1.15,2013-02-20 12:26:00,
2013-02-20 07:36:00,33.5,28.0,29.54,NW,305,1.0,2.0,80,0.00,,,0.00,Wunderground v.1.15,2013-02-20 12:36:00,
2013-02-20 07:46:00,33.5,28.0,29.55,NW,305,0.0,1.0,80,0.00,,,0.00,Wunderground v.1.15,2013-02-20 12:46:00,
2013-02-20 07:56:00,33.3,26.9,29.54,West,269,2.0,2.0,77,0.00,,,0.00,Wunderground v.1.15,2013-02-20 12:56:00,
2013-02-20 08:06:00,33.2,26.8,29.55,SSW,212,1.0,2.0,77,0.00,,,0.00,Wunderground v.1.15,2013-02-20 13:06:00,
2013-02-20 08:11:00,33.4,26.6,29.54,SW,225,1.0,1.0,76,0.00,,,0.00,Wunderground v.1.15,2013-02-20 13:11:00,
2013-02-20 08:21:00,33.7,25.6,29.55,WSW,251,1.0,1.0,72,0.00,,,0.00,Wunderground v.1.15,2013-02-20 13:21:00,
2013-02-20 08:31:00,34.4,25.3,29.55,North,11,1.0,1.0,69,0.00,,,0.00,Wunderground v.1.15,2013-02-20 13:31:00,
2013-02-20 08:41:00,35.0,25.5,29.55,NNW,329,1.0,3.0,68,0.00,,,0.00,Wunderground v.1.15,2013-02-20 13:41:00,
2013-02-20 08:46:00,35.0,24.8,29.55,West,268,2.0,3.0,66,0.00,,,0.00,Wunderground v.1.15,2013-02-20 13:46:00,
2013-02-20 08:56:00,34.4,24.6,29.55,WSW,245,1.0,2.0,67,0.00,,,0.00,Wunderground v.1.15,2013-02-20 13:56:00,
2013-02-20 09:06:00,34.0,23.8,29.55,NNW,342,2.0,3.0,66,0.00,,,0.00,Wunderground v.1.15,2013-02-20 14:06:00,
2013-02-20 09:16:00,33.7,23.5,29.56,NW,319,2.0,4.0,66,0.00,,,0.00,Wunderground v.1.15,2013-02-20 14:16:00,
2013-02-20 09:26:00,33.7,23.5,29.56,WSW,240,2.0,2.0,66,0.00,,,0.00,Wunderground v.1.15,2013-02-20 14:26:00,
2013-02-20 09:36:00,33.6,23.4,29.56,WNW,285,2.0,2.0,66,0.00,,,0.00,Wunderground v.1.15,2013-02-20 14:36:00,
2013-02-20 09:45:00,33.6,23.4,29.56,SW,219,2.0,2.0,66,0.00,,,0.00,Wunderground v.1.15,2013-02-20 14:45:00,
2013-02-20 09:51:00,33.9,23.7,29.56,WSW,244,1.0,2.0,66,0.00,,,0.00,Wunderground v.1.15,2013-02-20 14:51:00,
2013-02-20 10:01:00,33.9,23.4,29.56,NNE,18,2.0,2.0,65,0.00,,,0.00,Wunderground v.1.15,2013-02-20 15:01:00,
2013-02-20 10:10:00,34.6,24.0,29.56,West,268,1.0,2.0,65,0.00,,,0.00,Wunderground v.1.15,2013-02-20 15:10:00,
2013-02-20 10:15:00,34.4,23.5,29.56,SSW,196,1.0,2.0,64,0.00,,,0.00,Wunderground v.1.15,2013-02-20 15:15:00,
2013-02-20 10:20:00,34.4,23.5,29.56,West,277,2.0,3.0,64,0.00,,,0.00,Wunderground v.1.15,2013-02-20 15:20:00,
2013-02-20 10:26:00,34.3,23.0,29.56,WSW,251,2.0,3.0,63,0.00,,,0.00,Wunderground v.1.15,2013-02-20 15:26:00,
2013-02-20 10:36:00,33.8,22.5,29.56,ESE,109,2.0,4.0,63,0.00,,,0.00,Wunderground v.1.15,2013-02-20 15:36:00,
2013-02-20 10:46:00,33.9,23.4,29.56,SW,232,1.0,2.0,65,0.00,,,0.00,Wunderground v.1.15,2013-02-20 15:46:00,
2013-02-20 10:51:00,34.0,23.1,29.57,West,281,1.0,3.0,64,0.00,,,0.00,Wunderground v.1.15,2013-02-20 15:51:00,
2013-02-20 10:56:00,34.1,23.2,29.56,WSW,237,1.0,3.0,64,0.00,,,0.00,Wunderground v.1.15,2013-02-20 15:56:00,
2013-02-20 11:06:00,34.4,23.1,29.56,NW,304,2.0,3.0,63,0.00,,,0.00,Wunderground v.1.15,2013-02-20 16:06:00,
2013-02-20 11:16:00,34.4,22.7,29.57,SW,214,2.0,4.0,62,0.00,,,0.00,Wunderground v.1.15,2013-02-20 16:16:00,
2013-02-20 11:26:00,34.2,22.5,29.57,WSW,238,1.0,1.0,62,0.00,,,0.00,Wunderground v.1.15,2013-02-20 16:26:00,
2013-02-20 11:36:00,33.9,22.2,29.57,West,281,2.0,2.0,62,0.00,,,0.00,Wunderground v.1.15,2013-02-20 16:36:00,
2013-02-20 11:41:00,34.0,22.3,29.57,NE,34,2.0,2.0,62,0.00,,,0.00,Wunderground v.1.15,2013-02-20 16:41:00,
2013-02-20 11:51:00,33.9,21.9,29.56,WNW,292,2.0,2.0,61,0.00,,,0.00,Wunderground v.1.15,2013-02-20 16:51:00,
2013-02-20 12:01:00,33.7,21.7,29.56,SW,234,2.0,3.0,61,0.00,,,0.00,Wunderground v.1.15,2013-02-20 17:01:00,
2013-02-20 12:11:00,33.8,21.8,29.56,WSW,244,2.0,3.0,61,0.00,,,0.00,Wunderground v.1.15,2013-02-20 17:11:00,
2013-02-20 12:16:00,33.7,21.7,29.55,NNW,344,2.0,4.0,61,0.00,,,0.00,Wunderground v.1.15,2013-02-20 17:16:00,
2013-02-20 12:26:00,34.0,22.0,29.56,SW,232,2.0,3.0,61,0.00,,,0.00,Wunderground v.1.15,2013-02-20 17:26:00,
2013-02-20 12:36:00,34.1,22.0,29.56,WSW,253,2.0,3.0,61,0.00,,,0.00,Wunderground v.1.15,2013-02-20 17:36:00,
2013-02-20 12:41:00,34.1,22.0,29.56,NNW,334,2.0,2.0,61,0.00,,,0.00,Wunderground v.1.15,2013-02-20 17:41:00,
2013-02-20 12:51:00,33.9,21.5,29.55,WSW,248,2.0,3.0,60,0.00,,,0.00,Wunderground v.1.15,2013-02-20 17:51:00,
2013-02-20 13:01:00,33.8,22.5,29.55,SW,217,2.0,2.0,63,0.00,,,0.00,Wunderground v.1.15,2013-02-20 18:01:00,
2013-02-20 13:06:00,33.8,21.4,29.55,West,259,2.0,2.0,60,0.00,,,0.00,Wunderground v.1.15,2013-02-20 18:06:00,
2013-02-20 13:16:00,33.9,21.1,29.55,WSW,240,2.0,2.0,59,0.00,,,0.00,Wunderground v.1.15,2013-02-20 18:16:00,
2013-02-20 13:26:00,33.9,21.1,29.54,NW,305,2.0,2.0,59,0.00,,,0.00,Wunderground v.1.15,2013-02-20 18:26:00,
2013-02-20 13:36:00,34.4,21.5,29.54,West,259,1.0,3.0,59,0.00,,,0.00,Wunderground v.1.15,2013-02-20 18:36:00,
2013-02-20 13:46:00,34.4,20.7,29.54,NW,307,1.0,4.0,57,0.00,,,0.00,Wunderground v.1.15,2013-02-20 18:46:00,
2013-02-20 13:56:00,34.2,21.4,29.54,NW,305,2.0,2.0,59,0.00,,,0.00,Wunderground v.1.15,2013-02-20 18:56:00,
2013-02-20 14:06:00,34.1,21.3,29.54,West,259,2.0,4.0,59,0.00,,,0.00,Wunderground v.1.15,2013-02-20 19:06:00,
2013-02-20 14:11:00,33.9,20.7,29.54,WSW,254,2.0,3.0,58,0.00,,,0.00,Wunderground v.1.15,2013-02-20 19:11:00,
2013-02-20 14:21:00,33.9,21.1,29.54,SW,218,1.0,1.0,59,0.00,,,0.00,Wunderground v.1.15,2013-02-20 19:21:00,
2013-02-20 14:31:00,34.0,20.8,29.54,WSW,239,1.0,4.0,58,0.00,,,0.00,Wunderground v.1.15,2013-02-20 19:31:00,
2013-02-20 14:36:00,33.9,20.3,29.54,NNW,344,2.0,4.0,57,0.00,,,0.00,Wunderground v.1.15,2013-02-20 19:36:00,
2013-02-20 14:46:00,33.9,20.3,29.54,NNE,17,2.0,2.0,57,0.00,,,0.00,Wunderground v.1.15,2013-02-20 19:46:00,
2013-02-20 14:56:00,33.9,20.3,29.55,WNW,290,2.0,2.0,57,0.00,,,0.00,Wunderground v.1.15,2013-02-20 19:56:00,
2013-02-20 15:01:00,33.8,19.7,29.55,WSW,257,2.0,2.0,56,0.00,,,0.00,Wunderground v.1.15,2013-02-20 20:01:00,
2013-02-20 15:11:00,33.7,19.7,29.55,WSW,254,2.0,2.0,56,0.00,,,0.00,Wunderground v.1.15,2013-02-20 20:11:00,
2013-02-20 15:21:00,33.5,19.0,29.55,SW,234,2.0,3.0,55,0.00,,,0.00,Wunderground v.1.15,2013-02-20 20:21:00,
2013-02-20 15:31:00,33.1,19.1,29.56,West,261,1.0,1.0,56,0.00,,,0.00,Wunderground v.1.15,2013-02-20 20:31:00,
2013-02-20 15:36:00,33.1,19.1,29.55,WSW,240,1.0,1.0,56,0.00,,,0.00,Wunderground v.1.15,2013-02-20 20:36:00,
2013-02-20 15:46:00,33.0,18.6,29.56,NNE,29,2.0,3.0,55,0.00,,,0.00,Wunderground v.1.15,2013-02-20 20:46:00,
2013-02-20 15:56:00,33.3,18.4,29.56,WSW,244,2.0,2.0,54,0.00,,,0.00,Wunderground v.1.15,2013-02-20 20:56:00,
2013-02-20 16:06:00,33.3,18.9,29.56,SSW,202,2.0,4.0,55,0.00,,,0.00,Wunderground v.1.15,2013-02-20 21:06:00,
2013-02-20 16:16:00,33.0,18.6,29.57,West,264,2.0,5.0,55,0.00,,,0.00,Wunderground v.1.15,2013-02-20 21:16:00,
2013-02-20 16:26:00,32.7,18.3,29.57,SW,224,2.0,5.0,55,0.00,,,0.00,Wunderground v.1.15,2013-02-20 21:26:00,
2013-02-20 16:31:00,32.5,18.1,29.57,North,355,2.0,4.0,55,0.00,,,0.00,Wunderground v.1.15,2013-02-20 21:31:00,
2013-02-20 16:41:00,32.3,18.3,29.57,East,100,3.0,3.0,56,0.00,,,0.00,Wunderground v.1.15,2013-02-20 21:41:00,
2013-02-20 16:51:00,32.1,18.2,29.57,NW,323,3.0,3.0,56,0.00,,,0.00,Wunderground v.1.15,2013-02-20 21:51:00,
2013-02-20 17:01:00,31.9,18.0,29.57,NNW,334,2.0,2.0,56,0.00,,,0.00,Wunderground v.1.15,2013-02-20 22:01:00,
2013-02-20 17:06:00,31.7,17.8,29.57,WSW,250,2.0,3.0,56,0.00,,,0.00,Wunderground v.1.15,2013-02-20 22:06:00,
2013-02-20 17:11:00,31.4,17.9,29.57,WSW,249,2.0,2.0,57,0.00,,,0.00,Wunderground v.1.15,2013-02-20 22:11:00,
2013-02-20 17:21:00,31.0,17.9,29.58,SW,217,1.0,1.0,58,0.00,,,0.00,Wunderground v.1.15,2013-02-20 22:21:00,
2013-02-20 17:31:00,30.8,17.3,29.59,WNW,282,2.0,2.0,57,0.00,,,0.00,Wunderground v.1.15,2013-02-20 22:31:00,
2013-02-20 17:36:00,30.6,17.2,29.59,SW,227,2.0,3.0,57,0.00,,,0.00,Wunderground v.1.15,2013-02-20 22:36:00,
2013-02-20 17:41:00,30.5,17.5,29.59,WSW,238,2.0,5.0,58,0.00,,,0.00,Wunderground v.1.15,2013-02-20 22:41:00,
2013-02-20 17:51:00,30.3,17.3,29.60,West,263,2.0,2.0,58,0.00,,,0.00,Wunderground v.1.15,2013-02-20 22:51:00,
2013-02-20 17:56:00,30.3,16.9,29.60,North,360,2.0,2.0,57,0.00,,,0.00,Wunderground v.1.15,2013-02-20 22:56:00,
2013-02-20 18:06:00,30.1,17.5,29.60,NNW,329,1.0,2.0,59,0.00,,,0.00,Wunderground v.1.15,2013-02-20 23:06:00,
2013-02-20 18:16:00,29.8,17.2,29.61,West,269,1.0,3.0,59,0.00,,,0.00,Wunderground v.1.15,2013-02-20 23:16:00,
2013-02-20 18:26:00,29.8,16.8,29.61,WSW,243,2.0,3.0,58,0.00,,,0.00,Wunderground v.1.15,2013-02-20 23:26:00,
2013-02-20 18:36:00,29.8,17.2,29.62,North,351,1.0,2.0,59,0.00,,,0.00,Wunderground v.1.15,2013-02-20 23:36:00,
2013-02-20 18:46:00,29.6,17.4,29.61,NNW,327,1.0,2.0,60,0.00,,,0.00,Wunderground v.1.15,2013-02-20 23:46:00,
2013-02-20 18:56:00,29.4,17.2,29.62,NNW,329,1.0,2.0,60,0.00,,,0.00,Wunderground v.1.15,2013-02-20 23:56:00,
2013-02-20 19:01:00,29.4,17.6,29.62,WSW,239,1.0,2.0,61,0.00,,,0.00,Wunderground v.1.15,2013-02-21 00:01:00,
2013-02-20 19:06:00,29.4,17.6,29.62,WSW,250,2.0,5.0,61,0.00,,,0.00,Wunderground v.1.15,2013-02-21 00:06:00,
2013-02-20 19:16:00,29.3,17.5,29.62,East,91,1.0,2.0,61,0.00,,,0.00,Wunderground v.1.15,2013-02-21 00:16:00,
2013-02-20 19:26:00,29.2,17.4,29.62,SW,224,1.0,1.0,61,0.00,,,0.00,Wunderground v.1.15,2013-02-21 00:26:00,
2013-02-20 19:31:00,29.1,17.7,29.62,WSW,252,1.0,1.0,62,0.00,,,0.00,Wunderground v.1.15,2013-02-21 00:31:00,
2013-02-20 19:41:00,29.0,17.6,29.62,WNW,283,2.0,4.0,62,0.00,,,0.00,Wunderground v.1.15,2013-02-21 00:41:00,
2013-02-20 19:51:00,29.0,18.0,29.63,NNW,329,2.0,2.0,63,0.00,,,0.00,Wunderground v.1.15,2013-02-21 00:51:00,
2013-02-20 20:01:00,28.9,17.9,29.63,NNW,333,1.0,1.0,63,0.00,,,0.00,Wunderground v.1.15,2013-02-21 01:01:00,
2013-02-20 20:11:00,28.9,17.9,29.63,SSW,205,1.0,4.0,63,0.00,,,0.00,Wunderground v.1.15,2013-02-21 01:11:00,
2013-02-20 20:21:00,28.8,17.8,29.64,WSW,252,1.0,2.0,63,0.00,,,0.00,Wunderground v.1.15,2013-02-21 01:21:00,
2013-02-20 20:31:00,28.8,17.8,29.64,West,278,1.0,1.0,63,0.00,,,0.00,Wunderground v.1.15,2013-02-21 01:31:00,
2013-02-20 20:41:00,28.7,17.7,29.64,WSW,252,2.0,2.0,63,0.00,,,0.00,Wunderground v.1.15,2013-02-21 01:41:00,
2013-02-20 20:51:00,28.5,17.5,29.64,WSW,244,2.0,2.0,63,0.00,,,0.00,Wunderground v.1.15,2013-02-21 01:51:00,
2013-02-20 21:01:00,28.3,18.0,29.65,NW,325,1.0,2.0,65,0.00,,,0.00,Wunderground v.1.15,2013-02-21 02:01:00,
2013-02-20 21:11:00,28.0,17.4,29.65,WSW,244,1.0,1.0,64,0.00,,,0.00,Wunderground v.1.15,2013-02-21 02:11:00,
2013-02-20 21:21:00,27.7,17.5,29.66,West,267,1.0,4.0,65,0.00,,,0.00,Wunderground v.1.15,2013-02-21 02:21:00,
2013-02-20 21:31:00,27.5,17.3,29.66,North,355,1.0,2.0,65,0.00,,,0.00,Wunderground v.1.15,2013-02-21 02:31:00,
2013-02-20 21:41:00,27.3,17.1,29.66,North,355,1.0,1.0,65,0.00,,,0.00,Wunderground v.1.15,2013-02-21 02:41:00,
2013-02-20 21:51:00,27.1,16.9,29.66,WSW,248,1.0,1.0,65,0.00,,,0.00,Wunderground v.1.15,2013-02-21 02:51:00,
2013-02-20 22:01:00,27.1,16.9,29.67,WNW,295,1.0,1.0,65,0.00,,,0.00,Wunderground v.1.15,2013-02-21 03:01:00,
2013-02-20 22:11:00,27.1,16.9,29.66,NNE,14,1.0,2.0,65,0.00,,,0.00,Wunderground v.1.15,2013-02-21 03:11:00,
2013-02-20 22:20:00,27.1,16.9,29.67,WSW,257,1.0,1.0,65,0.00,,,0.00,Wunderground v.1.15,2013-02-21 03:20:00,
2013-02-20 22:26:00,27.1,16.9,29.67,West,259,1.0,1.0,65,0.00,,,0.00,Wunderground v.1.15,2013-02-21 03:26:00,
2013-02-20 22:36:00,27.1,17.2,29.67,North,349,1.0,2.0,66,0.00,,,0.00,Wunderground v.1.15,2013-02-21 03:36:00,
2013-02-20 22:46:00,27.1,17.2,29.68,SW,221,1.0,3.0,66,0.00,,,0.00,Wunderground v.1.15,2013-02-21 03:46:00,
2013-02-20 22:56:00,27.1,17.2,29.68,NNW,345,1.0,1.0,66,0.00,,,0.00,Wunderground v.1.15,2013-02-21 03:56:00,
2013-02-20 23:01:00,27.1,17.2,29.68,NNW,345,1.0,2.0,66,0.00,,,0.00,Wunderground v.1.15,2013-02-21 04:01:00,
2013-02-20 23:11:00,27.1,17.2,29.68,SW,233,2.0,2.0,66,0.00,,,0.00,Wunderground v.1.15,2013-02-21 04:11:00,
2013-02-20 23:21:00,27.0,17.1,29.69,NNW,346,1.0,1.0,66,0.00,,,0.00,Wunderground v.1.15,2013-02-21 04:21:00,
2013-02-20 23:31:00,26.8,17.3,29.69,NNW,346,0.0,0.0,67,0.00,,,0.00,Wunderground v.1.15,2013-02-21 04:31:00,
2013-02-20 23:41:00,26.7,17.2,29.69,NNW,342,1.0,1.0,67,0.00,,,0.00,Wunderground v.1.15,2013-02-21 04:41:00,
2013-02-20 23:51:00,26.7,17.2,29.69,NNW,342,1.0,1.0,67,0.00,,,0.00,Wunderground v.1.15,2013-02-21 04:51:00,